sat.trackr.live / text

‹ back to catalog

STARLINK-2135

NORAD 47408 · 2021-005BM

PAYLOAD ACTIVE UNKNOWN

§ Identity

Operator
Country
US
Launch date
2021-01-20
Launch site
AFETR
Launch vehicle
Mass (kg)
RCS (m²)

Purposes: comms

External: N2YO · Heavens-Above · Gunter

§ Orbital elements

Epoch: 2026-09-19T11:49:36.721632Z

Period
93.84 min
Inclination
53.1577°
Eccentricity
0.0003918
Mean motion
15.34598870 rev/d
Perigee alt
459.4 km
Apogee alt
464.8 km
Semi-major
6,840.2 km
B*
1.0291e-3
RAAN
214.8326°
Arg perigee
82.1857°
Mean anomaly
277.9590°
Rev number
31,308

§ Raw data

STARLINK-21351 47408U 21005BM  26262.49278613  .00034781  00000+0  10291-2 0  99962 47408  53.1577 214.8326 0003918  82.1857 277.9590 15.34598870313085

JSON: /api/v1/satellites/47408 · /tle

For live sub-satellite position, see the globe view (requires WebGL).

§ Visibility from observer

Set your observer location to see the next 7 days of passes ≥ 10°. The values pass through the URL so the page stays shareable.

No JS? Fill the form by hand. The geolocation button needs JavaScript.